Regional Weather Roundup
Issued by NWS

Home | Current Version | Previous Version | Text Only | Print | Product List | Glossary On
Versions: 1 2 3 4 5 6 7 8 9 10 11 12 13 14 15 16 17 18 19 20 21 22 23 24 25 26 27 28 29 30 31 32 33 34 35 36 37 38 39 40 41 42 43 44 45 46 47 48 49 50
000
ASUS45 KSLC 222010
RWRUT

UTAH REGIONAL WEATHER ROUNDUP
NATIONAL WEATHER SERVICE SALT LAKE CITY UT
100 PM MST WED FEB 22 2017

UTZ001>011-023>025-222100-

NORTHERN UTAH

CITY           SKY/WX    TMP DP  RH WIND       PRES   REMARKS
BRIGHAM CITY     N/A     41  29  61 S3        29.91F
DUGWAY         LGT RAIN  38  35  89 N7        29.91F WCI  32
HILL AFB       CLOUDY    38  28  67 SE7       29.89F WCI  33
LOGAN          CLOUDY    40  34  79 N7        29.90
OGDEN          CLOUDY    40  26  57 S7        29.89F
SALT LAKE CITY LGT RAIN  40  34  79 S12       29.90F WCI  33
TOOELE VALLEY  CLOUDY    39  34  81 SE5       29.91F
WENDOVER       CLOUDY    39  28  65 E3        29.89F
HEBER CITY     LGT SNOW  36  30  80 CALM      29.87F
WEST JORDAN    CLOUDY    40  40 100 S7        29.91F

$$

UTZ011>015-024>027-222100-

CENTRAL/NORTHEAST UTAH

CITY           SKY/WX    TMP DP  RH WIND       PRES   REMARKS
PROVO AIRPORT  CLOUDY    39  36  89 CALM      29.93F
MOAB/CANYONLAN MOSUNNY   61  27  27 SW16G30   29.78
DELTA          CLOUDY    45  34  65 N8        29.87F
PRICE          CLOUDY    49  29  46 SW7       29.81F
RICHFIELD      MOSUNNY   55  28  35 W16G22    29.81F
ROOSEVELT      MIX PCPN  41  32  70 E7        29.89F
VERNAL         PTSUNNY   40  33  76 NE3       29.87F

$$

UTZ013>016-019>022-027-222100-

SOUTHERN UTAH

CITY           SKY/WX    TMP DP  RH WIND       PRES   REMARKS
BRYCE CANYON   SUNNY     40  24  53 SW17      29.91F WCI  31
CEDAR CITY     MOSUNNY   53  26  35 SW21G36   29.85F
MILFORD        PTSUNNY   56  29  35 SW26G33   29.82F
ST GEORGE      CLOUDY    61  41  47 NW8       29.86F
HANKSVILLE     SUNNY     63  27  25 SW18G31   29.80F
KANAB          SUNNY     61  25  25 SW21      29.90F
BLANDING       SUNNY     56  26  30 SW14G24   29.97F

$$

REGIONAL REPORTS     COLORADO/ARIZONA

CITY           SKY/WX    TMP DP  RH WIND       PRES   REMARKS
CRAIG, CO      LGT SNOW  35  30  82 E3        29.89F VSB 1
GRAND JUNCTION PTSUNNY   59  29  31 NW13      29.80F
RIFLE, CO      PTSUNNY   56  27  32 W20G28    29.80F
MONTROSE, CO   CLOUDY    59  24  26 SW24G35   29.85F
CORTEZ, CO     MOSUNNY   59  28  30 S15G24    29.94F
COLORADO CITY    N/A     59  28  31 W13G23    29.92F
PAGE, AZ       MOSUNNY   64  21  19 W8        29.84F
GRAND CANYON   MOSUNNY   50  31  48 SW22G35   30.00F
KINGMAN, AZ    MOSUNNY   66   8  10 SW28G38   29.93F
FLAGSTAFF, AZ  PTSUNNY   48  38  68 SW25G35   30.04F

$$

REGIONAL REPORTS    NEVADA/IDAHO/WYOMING

CITY           SKY/WX    TMP DP  RH WIND       PRES   REMARKS
LAS VEGAS, NV  MOSUNNY   63  25  23 S15G23    29.87F
ELY, NY        MIX PCPN  30  25  81 NW20      29.92S WCI  17
ELKO, NV       CLOUDY    34  23  64 SW20G26   29.92F WCI  23
POCATELLO, ID  MOSUNNY   41  24  51 NW12      29.91F
BURLEY, ID     PTSUNNY   44  23  43 VRB3      29.88
FORT BRIDGER,  CLOUDY    31  28  90 N3        29.91F
EVANSTON, WY   LGT SNOW  29  24  82 CALM      29.86F
ROCK SPRINGS,  LGT SNOW  30  23  75 N3        29.89F
KEMMERER, WY     N/A     32  23  69 NW3       29.88F

$$



USA.gov is the U.S. government's official web portal to all federal, state and local government web resources and services.